CZ-6A DEB, 56261

Orbit data source: Space-Track

CZ-6A DEB, 56261 is space debris in SSO originally from a launch on Fri, 11 Nov 2022 UTC launched from the Taiyaun Space Center, China (TSC). Debris objects in space refer to the collection of defunct objects orbiting the Earth. Examples of debris include non-operational satellites, rocket bodies, and fragments generated from explosions, collisions, or faulty payload assembly.

Loading next visibility...
Identifier
56261, 2022-151ACD
Orbit
SSO
Country
Flag of CNCN / PRC
Related business
Manufacturer
SAST
Mission
Spacecraft
Bus & Motor
Unknown
Mass
Unknown
Launch date (UTC)
2022-11-11 (4 years ago)
Launch vehicle
Unknown
Launch site
Taiyaun Space Center, China (TSC)
Object type
Payload
Rocket body
Debris
Shape & HBR
Unknown shape, 1.1 m
Radar Cross Section
Medium (>0.1 m² and <1 m²)

Expand to show TLE details & history
Last TLE update: 20 hours ago

TLE from 20 hours ago
0 CZ-6A DEB
1 56261U 22151ACD 26206.50179806  .00005679  00000-0  19999-2 0  9999
2 56261  98.7994 228.8656 0040110 173.6430 186.5272 14.34764861177498
Epoch: 2026-07-25T12:02Z
TLE epoch observation values (Epoch: 2026-07-25T12:02:35.352Z)
Latitude
0.00004°
Longitude
105.00513°
Altitude
807.296 km
Speed
7.435 km/s
True Right ascension
15h 15m 27s
True Declination
0° 00' 00"
Sunlit
Object was in daylight at epoch
Visualization orbit readout
Latitude
Unknown
Longitude
Unknown
Altitude
Unknown
Speed
Unknown
Apparent Right ascension
Unknown
Apparent Declination
Unknown
Sunlit
N/A
Visualization observer readout
Local Sidereal Time
21:10:07
Azimuth
Unknown
Elevation
Unknown
Doppler factor
Unknown
Orbital elements
Apogee altitude
801.674 km
Perigee altitude
744.308 km
Semi-major axis
7,151.128 km
Eccentricity
0.00401
Inclination
98.7994°
RAAN
228.8656°
Arg. of periapsis
173.643°
True anomaly
186.47521°
Mean anomaly
186.5272°
Eccentric anomaly
186.50118°
Mean motion
3.58907 °/min
Orbital period
100.3 mins
BSTAR
0.0019999
Loading maneuver chart data...
Computing Atmospheric mass density...

Documentation

Showing up to 5 results
|